Greeley, CO

4:02 AM MDT on March 29, 2017 (GMT -0600)
Greeley-Weld County

Weather History for KGXY - November, 2011

Change the Weather History Date:

Saturday, November 26, 2011

  Actual Average Record
Temperature  
Mean Temperature 30 °F -  
Max Temperature 42 °F - 66 °F (1998)
Min Temperature 15 °F - 3 °F (1975)
Degree Days  
Heating Degree Days 36    
Month to date heating degree days  
Cooling Degree Days 0    
Month to date cooling degree days  
Moisture  
Dew Point 7 °F    
Average Humidity 40    
Maximum Humidity 63    
Minimum Humidity 18    
Precipitation  
Precipitation 0.00 in - 1.10 in (1983)
Sea Level Pressure  
Sea Level Pressure 30.41 in    
Wind  
Wind Speed 19 mph (NNW)    
Max Wind Speed 28 mph    
Max Gust Speed 37 mph    
Visibility 10 miles    
Events      
T = Trace of Precipitation, MM = Missing Value Source: NWS Daily Summary

Daily Weather History Graph

Daily Weather History Graph

Search for Another Location

Airport or City:

Trip Planner

Search our weather history database for the weather conditions in past years. The results will help you decide how hot, cold, wet, or windy it might be!

Date:

Astronomy

Nov. 26, 2011 Rise Set
Actual Time 6:56 AM MST 4:34 PM MST
Civil Twilight 6:26 AM MST 5:04 PM MST
Nautical Twilight 5:53 AM MST 5:37 PM MST
Astronomical Twilight 5:20 AM MST 6:10 PM MST
Moon 8:30 AM MST (11/26) 6:08 PM MST (11/26)
Length of Visible Light 10h 37m
Length of Day
9h 37m
Waxing Crescent, 3% of the Moon is Illuminated
Nov 26
Waxing Crescent
Dec 2
First Quarter
Dec 10
Full
Dec 17
Last Quarter
Dec 24
New

Hourly Weather History & Observations

Time (MST) Temp. Windchill Dew Point Humidity Pressure Visibility Wind Dir Wind Speed Gust Speed Precip Events Conditions
12:15 AM 30.2 °F 15.9 °F 15.8 °F 55% 30.19 in 10.0 mi North 26.5 mph 32.2 mph N/A   Overcast
12:35 AM 30.2 °F 18.1 °F 15.8 °F 55% 30.20 in 10.0 mi NNW 18.4 mph 23.0 mph N/A   Overcast
12:55 AM 30.2 °F 17.8 °F 15.8 °F 55% 30.21 in 10.0 mi NNW 19.6 mph - N/A   Overcast
1:15 AM 28.4 °F 17.0 °F 15.8 °F 59% 30.23 in 10.0 mi NNW 15.0 mph - N/A   Partly Cloudy
1:55 AM 28.4 °F 15.1 °F 14.0 °F 55% 30.26 in 10.0 mi NNW 20.7 mph 28.8 mph N/A   Clear
2:15 AM 28.4 °F 15.4 °F 12.2 °F 51% 30.27 in 10.0 mi North 19.6 mph 27.6 mph N/A   Clear
2:35 AM 28.4 °F 15.8 °F 10.4 °F 47% 30.28 in 10.0 mi North 18.4 mph 24.2 mph N/A   Clear
3:35 AM 28.4 °F 14.1 °F 8.6 °F 43% 30.32 in 10.0 mi NW 24.2 mph 28.8 mph N/A   Clear
3:55 AM 28.4 °F 14.7 °F 8.6 °F 43% 30.33 in 10.0 mi NNW 21.9 mph 26.5 mph N/A   Clear
4:15 AM 28.4 °F 13.3 °F 8.6 °F 43% 30.34 in 10.0 mi NNW 27.6 mph 33.4 mph N/A   Clear
4:55 AM 28.4 °F 15.1 °F 8.6 °F 43% 30.38 in 10.0 mi NNW 20.7 mph 26.5 mph N/A   Clear
5:15 AM 26.6 °F 14.7 °F 8.6 °F 47% 30.40 in 10.0 mi NNW 15.0 mph - N/A   Clear
5:35 AM 26.6 °F 16.2 °F 8.6 °F 47% 30.42 in 10.0 mi NNW 11.5 mph - N/A   Clear
5:55 AM 26.6 °F 14.3 °F 8.6 °F 47% 30.42 in 10.0 mi NNW 16.1 mph - N/A   Clear
6:15 AM 26.6 °F 14.3 °F 6.8 °F 43% 30.44 in 10.0 mi NNW 16.1 mph - N/A   Clear
6:35 AM 26.6 °F 14.3 °F 6.8 °F 43% 30.45 in 10.0 mi NNW 16.1 mph - N/A   Clear
7:36 AM 26.6 °F 13.1 °F 6.8 °F 43% 30.48 in 10.0 mi NNW 19.6 mph 25.3 mph N/A   Clear
8:55 AM 32.0 °F 19.5 °F 8.6 °F 38% 30.50 in 10.0 mi NNW 21.9 mph 33.4 mph N/A   Clear
9:15 AM 33.8 °F 20.8 °F 6.8 °F 32% 30.50 in 10.0 mi NNW 26.5 mph 36.8 mph N/A   Clear
10:35 AM 35.6 °F 23.7 °F 6.8 °F 30% 30.52 in 10.0 mi North 24.2 mph 31.1 mph N/A   Clear
10:55 AM 37.4 °F 26.9 °F 8.6 °F 30% 30.50 in 10.0 mi NW 20.7 mph 29.9 mph N/A   Clear
11:15 AM 37.4 °F 26.4 °F 6.8 °F 28% 30.50 in 10.0 mi NNW 23.0 mph 29.9 mph N/A   Clear
12:15 PM 39.2 °F 29.3 °F 5.0 °F 24% 30.46 in 10.0 mi NNW 20.7 mph - N/A   Clear
12:55 PM 41.0 °F 30.9 °F 3.2 °F 21% 30.44 in 10.0 mi NNW 24.2 mph 34.5 mph N/A   Clear
1:35 PM 42.8 °F 34.3 °F 1.4 °F 18% 30.43 in 10.0 mi NNW 19.6 mph 23.0 mph N/A   Clear
1:55 PM 42.8 °F 34.0 °F 1.4 °F 18% 30.43 in 10.0 mi NNW 20.7 mph 27.6 mph N/A   Clear
2:35 PM 42.8 °F 33.1 °F 1.4 °F 18% 30.42 in 10.0 mi North 25.3 mph 32.2 mph N/A   Clear
2:55 PM 42.8 °F 34.0 °F 1.4 °F 18% 30.43 in 10.0 mi North 20.7 mph 32.2 mph N/A   Clear
3:15 PM 42.8 °F 33.5 °F 1.4 °F 18% 30.44 in 10.0 mi North 23.0 mph 27.6 mph N/A   Clear
3:55 PM 39.2 °F 30.5 °F 3.2 °F 22% 30.44 in 10.0 mi North 16.1 mph - N/A   Clear
4:35 PM 35.6 °F 25.9 °F 3.2 °F 26% 30.44 in 10.0 mi NNE 16.1 mph - N/A   Clear
5:55 PM 30.2 °F 23.4 °F 3.2 °F 32% 30.45 in 10.0 mi North 6.9 mph - N/A   Clear
6:15 PM 26.6 °F 17.5 °F 3.2 °F 37% 30.46 in 10.0 mi North 9.2 mph - N/A   Clear
6:55 PM 24.8 °F 20.5 °F 5.0 °F 43% 30.47 in 10.0 mi SE 3.5 mph - N/A   Clear
7:35 PM 19.4 °F - 3.2 °F 49% 30.48 in 10.0 mi Calm Calm - N/A   Clear
7:55 PM 23.0 °F 15.8 °F 5.0 °F 46% 30.47 in 10.0 mi SW 5.8 mph - N/A   Clear
8:35 PM 19.4 °F 11.5 °F 3.2 °F 49% 30.48 in 10.0 mi South 5.8 mph - N/A   Clear
9:15 PM 19.4 °F 11.5 °F 3.2 °F 49% 30.47 in 10.0 mi South 5.8 mph - N/A   Clear
9:35 PM 17.6 °F 12.3 °F 6.8 °F 63% 30.48 in 10.0 mi SSE 3.5 mph - N/A   Clear
10:35 PM 17.6 °F - 5.0 °F 58% 30.48 in 10.0 mi Calm Calm - N/A   Clear
11:55 PM 15.8 °F 8.6 °F 3.2 °F 58% 30.47 in 10.0 mi NE 4.6 mph - N/A   Clear